FW6147 Weather Reports


time (UTC)temp
F
wind
direction
speed
knots
gust
knots
rain 1hr
in
rain 24hr
in
rain mn
in
humidity
%
barometer
mb
20260504033558 70 0 0.0 4.3 0.00 0.00 0.00 29 1016.3
20260504033101 71 243 0.0 4.3 0.00 0.00 0.00 28 1016.0
20260504032555 71 0 0.9 6.1 0.00 0.00 0.00 28 1016.0
20260504032055 71 0 1.7 6.1 0.00 0.00 0.00 27 1016.2
20260504031553 71 0 0.9 6.1 0.00 0.00 0.00 27 1016.2
20260504031054 71 254 0.9 6.1 0.00 0.00 0.00 27 1016.1
20260504030558 70 277 0.9 5.2 0.00 0.00 0.00 27 1016.1
20260504030056 70 0 0.0 4.3 0.00 0.00 0.00 29 1016.0
20260504025556 71 0 0.0 4.3 0.00 0.00 0.00 29 1015.9
20260504025056 71 0 0.0 3.5 0.00 0.00 0.00 28 1015.9
20260504024558 71 0 0.0 3.5 0.00 0.00 0.00 28 1015.9
20260504024055 72 0 0.0 0.0 0.00 0.00 0.00 29 1015.8
20260504023552 72 0 0.0 0.0 0.00 0.00 0.00 27 1015.9
20260504023054 72 0 0.0 0.0 0.00 0.00 0.00 28 1015.8
20260504022553 72 0 0.0 0.0 0.00 0.00 0.00 28 1015.7
20260504022058 72 0 0.0 0.0 0.00 0.00 0.00 29 1015.5
20260504021553 72 0 0.0 0.0 0.00 0.00 0.00 29 1015.5
20260504021055 73 0 0.0 0.0 0.00 0.00 0.00 29 1015.6
20260504020553 73 0 0.0 0.0 0.00 0.00 0.00 28 1015.6
20260504020053 73 0 0.0 0.9 0.00 0.00 0.00 28 1015.5
20260504015552 74 0 0.0 0.9 0.00 0.00 0.00 27 1015.4
20260504015055 74 0 0.0 0.9 0.00 0.00 0.00 27 1015.2
20260504014554 75 0 0.0 0.0 0.00 0.00 0.00 27 1015.3
20260504014055 76 0 0.0 0.9 0.00 0.00 0.00 26 1015.4
20260504013554 76 0 0.0 0.9 0.00 0.00 0.00 26 1015.4
20260504013111 77 0 0.0 6.1 0.00 0.00 0.00 25 1015.5
20260504012555 77 0 0.0 13.0 0.00 0.00 0.00 25 1015.2
20260504012055 77 0 5.2 13.0 0.00 0.00 0.00 25 1015.4
20260504011555 77 0 0.0 8.7 0.00 0.00 0.00 24 1015.4
20260504011054 77 188 1.7 8.7 0.00 0.00 0.00 24 1015.4
20260504010555 77 0 1.7 8.7 0.00 0.00 0.00 24 1015.4
20260504010101 78 0 0.0 7.0 0.00 0.00 0.00 24 1015.4
20260504005554 78 0 0.0 7.0 0.00 0.00 0.00 25 1015.4
20260504005053 78 0 0.0 2.6 0.00 0.00 0.00 25 1015.5
20260504004607 78 0 0.0 2.6 0.00 0.00 0.00 25 1015.5
20260504004053 78 0 0.0 0.0 0.00 0.00 0.00 24 1015.5
20260504003552 78 0 0.0 9.6 0.00 0.00 0.00 24 1015.4
20260504003058 78 0 0.9 11.3 0.00 0.00 0.00 24 1015.4
20260504002553 78 204 6.1 12.2 0.00 0.00 0.00 24 1015.4
20260504002055 78 0 7.0 12.2 0.00 0.00 0.00 24 1015.5
20260504001558 78 164 7.0 12.2 0.00 0.00 0.00 24 1015.5
20260504001055 79 184 3.5 12.2 0.00 0.00 0.00 24 1015.3
20260504000555 79 171 5.2 11.3 0.00 0.00 0.00 24 1015.3
20260504000125 79 0 0.0 4.3 0.00 0.00 0.00 25 1015.3
20260503235554 79 0 0.0 5.2 0.00 0.00 0.00 25 1015.4
20260503235056 79 0 0.0 5.2 0.00 0.00 0.00 24 1015.5
20260503234557 80 238 0.9 5.2 0.00 0.00 0.00 24 1015.5
20260503234054 80 238 0.0 4.3 0.00 0.00 0.00 24 1015.5
20260503233555 80 0 0.0 5.2 0.00 0.00 0.00 24 1015.5
20260503233057 80 229 0.0 13.0 0.00 0.00 0.00 23 1015.4
20260503232553 80 224 0.0 13.0 0.00 0.00 0.00 23 1015.5
20260503232052 79 0 6.1 13.0 0.00 0.00 0.00 24 1015.6
20260503231556 79 0 0.0 11.3 0.00 0.00 0.00 23 1015.6
20260503231055 79 174 7.0 13.9 0.00 0.00 0.00 23 1015.7
20260503230555 79 159 7.8 13.9 0.00 0.00 0.00 22 1015.6
20260503230104 79 191 7.8 13.9 0.00 0.00 0.00 22 1015.6
20260503225554 79 172 3.5 13.0 0.00 0.00 0.00 26 1015.8
20260503225055 79 158 7.8 13.0 0.00 0.00 0.00 27 1015.7
20260503224602 79 166 8.7 13.0 0.00 0.00 0.00 28 1015.7
20260503224055 80 176 4.3 15.6 0.00 0.00 0.00 27 1015.7
20260503223554 79 165 0.9 15.6 0.00 0.00 0.00 26 1015.8
20260503223058 79 174 5.2 15.6 0.00 0.00 0.00 26 1015.9
20260503222554 80 195 8.7 12.2 0.00 0.00 0.00 27 1015.9
20260503222054 80 152 6.1 12.2 0.00 0.00 0.00 27 1015.9
20260503221556 80 186 3.5 23.5 0.00 0.00 0.00 27 1015.9
20260503221055 80 143 6.1 23.5 0.00 0.00 0.00 27 1015.9
20260503220555 79 139 2.6 18.2 0.00 0.00 0.00 28 1016.1
20260503220120 79 145 1.7 18.2 0.00 0.00 0.00 29 1016.3
20260503215554 79 180 4.3 13.9 0.00 0.00 0.00 30 1016.3
20260503215056 80 172 5.2 14.8 0.00 0.00 0.00 30 1016.4
20260503214559 80 158 7.0 14.8 0.00 0.00 0.00 29 1016.4
20260503214054 80 153 7.8 14.8 0.00 0.00 0.00 30 1016.6
20260503213555 80 169 5.2 11.3 0.00 0.00 0.00 30 1016.7
20260503213059 80 182 6.1 11.3 0.00 0.00 0.00 29 1016.7
20260503212555 79 0 0.9 13.9 0.00 0.00 0.00 31 1016.8
20260503212055 79 167 2.6 13.9 0.00 0.00 0.00 31 1017.0
20260503211556 78 174 8.7 14.8 0.00 0.00 0.00 30 1017.1
20260503211055 79 131 9.6 14.8 0.00 0.00 0.00 30 1017.2
20260503210555 78 147 4.3 13.9 0.00 0.00 0.00 29 1017.2
20260503210059 79 0 3.5 14.8 0.00 0.00 0.00 29 1017.3
20260503205555 79 131 1.7 15.6 0.00 0.00 0.00 30 1017.4
20260503205053 79 193 11.3 15.6 0.00 0.00 0.00 29 1017.4
20260503204603 80 174 8.7 15.6 0.00 0.00 0.00 29 1017.3
20260503204055 79 150 4.3 15.6 0.00 0.00 0.00 30 1017.6
20260503203552 79 153 5.2 14.8 0.00 0.00 0.00 30 1017.8
20260503203057 79 142 7.8 14.8 0.00 0.00 0.00 29 1018.0
20260503202555 79 142 6.1 14.8 0.00 0.00 0.00 31 1018.1
20260503202055 78 115 3.5 16.5 0.00 0.00 0.00 30 1018.0
20260503201553 78 161 9.6 16.5 0.00 0.00 0.00 30 1018.2
20260503201058 78 136 5.2 13.0 0.00 0.00 0.00 31 1018.1
20260503200555 78 134 7.8 13.0 0.00 0.00 0.00 32 1018.3
20260503200056 78 135 6.1 12.2 0.00 0.00 0.00 33 1018.3
20260503195554 78 139 7.8 12.2 0.00 0.00 0.00 33 1018.4
20260503195055 77 0 2.6 9.6 0.00 0.00 0.00 35 1018.5
20260503194602 77 156 3.5 11.3 0.00 0.00 0.00 36 1018.5
20260503194055 77 100 5.2 11.3 0.00 0.00 0.00 37 1018.5
20260503193554 76 112 5.2 10.4 0.00 0.00 0.00 36 1018.4
20260503193054 76 129 7.0 11.3 0.00 0.00 0.00 36 1018.5
20260503192554 75 129 7.8 11.3 0.00 0.00 0.00 37 1018.7
20260503192055 75 157 7.0 11.3 0.00 0.00 0.00 37 1018.9
20260503191553 75 137 7.0 10.4 0.00 0.00 0.00 37 1018.8
20260503191055 75 146 5.2 9.6 0.00 0.00 0.00 38 1019.0
20260503190556 75 131 6.1 10.4 0.00 0.00 0.00 38 1019.2
20260503190055 74 162 7.0 10.4 0.00 0.00 0.00 38 1019.4
20260503185555 74 116 4.3 9.6 0.00 0.00 0.00 39 1019.4
20260503185057 74 148 6.1 10.4 0.00 0.00 0.00 39 1019.5
20260503184603 73 115 2.6 10.4 0.00 0.00 0.00 40 1019.6
20260503184055 74 138 4.3 7.8 0.00 0.00 0.00 40 1019.7
20260503183553 73 143 2.6 8.7 0.00 0.00 0.00 41 1019.8
20260503183055 73 132 5.2 8.7 0.00 0.00 0.00 42 1019.7
20260503182557 73 0 4.3 8.7 0.00 0.00 0.00 41 1019.7
20260503182055 72 82 1.7 9.6 0.00 0.00 0.00 42 1019.9
20260503181553 72 139 4.3 9.6 0.00 0.00 0.00 41 1020.1
20260503181056 72 95 2.6 7.0 0.00 0.00 0.00 42 1020.3
20260503180555 72 181 4.3 9.6 0.00 0.00 0.00 41 1020.4
20260503180116 72 0 3.5 9.6 0.00 0.00 0.00 42 1020.3
20260503175555 71 122 0.9 8.7 0.00 0.00 0.00 43 1020.6
20260503175054 71 0 0.9 7.0 0.00 0.00 0.00 43 1020.6
20260503174556 71 171 0.9 7.0 0.00 0.00 0.00 44 1020.7
20260503174059 71 0 3.5 7.0 0.00 0.00 0.00 43 1020.6
20260503173555 70 0 2.6 5.2 0.00 0.00 0.00 44 1020.8
20260503173112 70 0 0.0 5.2 0.00 0.00 0.00 46 1020.7
20260503172556 69 57 0.0 5.2 0.00 0.00 0.00 47 1020.7
20260503172055 69 150 0.0 3.5 0.00 0.00 0.00 48 1020.9
20260503171600 68 0 0.9 3.5 0.00 0.00 0.00 48 1020.8
20260503171055 68 0 0.0 0.0 0.00 0.00 0.00 48 1020.7
20260503170555 67 0 0.0 0.0 0.00 0.00 0.00 48 1020.8
20260503160111 64 0 0.0 0.0 0.00 0.00 0.00 58 1020.4
20260503150555 60 0 0.0 3.5 0.00 0.00 0.00 65 1020.2
20260503131055 54 0 0.0 0.0 0.00 0.00 0.00 80 1019.8
20260503130555 54 0 0.0 0.0 0.00 0.00 0.00 80 1019.8
20260503110556 54 0 0.0 0.0 0.00 0.00 0.00 80 1019.3
20260503081556 55 0 0.0 0.0 0.00 0.00 0.00 81 1020.2
20260503081058 55 0 0.0 0.0 0.00 0.00 0.00 81 1020.2
20260503080558 55 0 0.0 0.0 0.00 0.00 0.00 81 1020.3
20260503072555 55 0 0.0 0.0 0.00 0.00 0.00 79 1020.6
20260503072054 55 0 0.0 0.0 0.00 0.00 0.00 79 1020.5
20260503071558 55 0 0.0 0.0 0.00 0.00 0.00 79 1020.4
20260503071054 55 0 0.0 0.0 0.00 0.00 0.00 79 1020.5
20260503070554 56 0 0.0 0.0 0.00 0.00 0.00 78 1020.4
20260503060115 59 0 0.0 0.0 0.00 0.00 0.00 69 1020.0
20260503055055 59 0 0.0 0.0 0.00 0.00 0.00 69 1020.1
20260503054620 59 0 0.0 0.0 0.00 0.00 0.00 68 1020.1
20260503054057 59 0 0.0 0.0 0.00 0.00 0.00 68 1020.2
20260503053556 59 0 0.0 0.0 0.00 0.00 0.00 67 1020.3
20260503053055 60 0 0.0 0.0 0.00 0.00 0.00 67 1020.1
20260503052555 60 0 0.0 0.0 0.00 0.00 0.00 66 1020.0
20260503052056 60 0 0.0 0.0 0.00 0.00 0.00 65 1019.9
20260503051604 61 0 0.0 0.0 0.00 0.00 0.00 62 1019.9
20260503051056 62 0 0.0 0.0 0.00 0.00 0.00 60 1019.8
20260503050556 62 0 0.0 0.0 0.00 0.00 0.00 57 1019.9
20260503050056 62 0 0.0 0.0 0.00 0.00 0.00 59 1019.8
20260503045556 63 0 0.0 0.0 0.00 0.00 0.00 57 1019.7
20260503045055 63 0 0.0 0.0 0.00 0.00 0.00 55 1019.6
20260503044556 63 0 0.0 0.0 0.00 0.00 0.00 55 1019.5
20260503044055 63 0 0.0 0.0 0.00 0.00 0.00 55 1019.4
20260503043556 62 0 0.0 5.2 0.00 0.00 0.00 56 1019.5
20260503043101 63 0 0.0 5.2 0.00 0.00 0.00 56 1019.5
20260503042556 63 133 0.0 5.2 0.00 0.00 0.00 55 1019.4
20260503042056 63 0 0.0 0.0 0.00 0.00 0.00 55 1019.6
20260503041556 62 0 0.0 0.0 0.00 0.00 0.00 57 1019.5
20260503041052 62 0 0.0 0.0 0.00 0.00 0.00 57 1019.5
20260503040553 62 0 0.0 0.0 0.00 0.00 0.00 59 1019.5
20260503035555 62 0 0.0 0.0 0.00 0.00 0.00 59 1019.5
20260503035056 63 0 0.0 0.0 0.00 0.00 0.00 58 1019.3
20260503034559 63 0 0.0 0.0 0.00 0.00 0.00 56 1019.3
20260503034059 64 0 0.0 0.0 0.00 0.00 0.00 54 1019.2